owner,sensor,date,latitude,longitude,vertical_datum,wind_speed,wind_to_direction,wind_speed_of_gust,qcFlag 
DISL,ioos:station:DISL:PPTA:1,2016-01-01T00:00:00Z,30.2791,-87.5561,0.0,5.5,5.0,99.0,'11111222,11111222,11144222' 
DISL,ioos:station:DISL:PPTA:1,2016-01-01T00:30:00Z,30.2791,-87.5561,0.0,5.7,14.0,99.0,'11111222,11111222,11144222' 
DISL,ioos:station:DISL:PPTA:1,2016-01-01T01:00:00Z,30.2791,-87.5561,0.0,5.2,358.0,99.0,'11111222,11111222,11144222' 
DISL,ioos:station:DISL:PPTA:1,2016-01-01T01:30:00Z,30.2791,-87.5561,0.0,5.7,16.0,99.0,'11111222,11111222,11144222' 
DISL,ioos:station:DISL:PPTA:1,2016-01-01T02:00:00Z,30.2791,-87.5561,0.0,6.0,357.0,99.0,'11111222,11111222,11144222' 
DISL,ioos:station:DISL:PPTA:1,2016-01-01T02:30:00Z,30.2791,-87.5561,0.0,5.8,17.0,99.0,'11111222,11111222,11144222' 
DISL,ioos:station:DISL:PPTA:1,2016-01-01T03:00:00Z,30.2791,-87.5561,0.0,6.5,21.0,99.0,'11111222,11111222,11144222' 
DISL,ioos:station:DISL:PPTA:1,2016-01-01T03:30:00Z,30.2791,-87.5561,0.0,5.6,22.0,99.0,'11111222,11111222,11144222' 
DISL,ioos:station:DISL:PPTA:1,2016-01-01T04:00:00Z,30.2791,-87.5561,0.0,5.3,12.0,99.0,'11111222,11111222,11144222' 
DISL,ioos:station:DISL:PPTA:1,2016-01-01T04:30:00Z,30.2791,-87.5561,0.0,5.7,12.0,99.0,'11111222,11111222,11144222' 
DISL,ioos:station:DISL:PPTA:1,2016-01-01T05:00:00Z,30.2791,-87.5561,0.0,4.7,20.0,99.0,'11111222,11111222,11144222' 
DISL,ioos:station:DISL:PPTA:1,2016-01-01T05:30:00Z,30.2791,-87.5561,0.0,3.9,15.0,99.0,'11111222,11111222,11144222' 
DISL,ioos:station:DISL:PPTA:1,2016-01-01T06:00:00Z,30.2791,-87.5561,0.0,3.9,17.0,99.0,'11111222,11111222,11144222' 
DISL,ioos:station:DISL:PPTA:1,2016-01-01T06:30:00Z,30.2791,-87.5561,0.0,4.11,1.252,-9999.0,'1111122,1111122,1111122' 
DISL,ioos:station:DISL:PPTA:1,2016-01-01T07:00:00Z,30.2791,-87.5561,0.0,4.86,16.14,-9999.0,'1111122,1111122,1111122' 
DISL,ioos:station:DISL:PPTA:1,2016-01-01T07:30:00Z,30.2791,-87.5561,0.0,4.34,9.57,-9999.0,'1111122,1111122,1111122' 
DISL,ioos:station:DISL:PPTA:1,2016-01-01T08:00:00Z,30.2791,-87.5561,0.0,4.6,3.896,-9999.0,'1111122,1111122,1111122' 
DISL,ioos:station:DISL:PPTA:1,2016-01-01T08:30:00Z,30.2791,-87.5561,0.0,5.03,357.6,-9999.0,'1111122,1111122,1111122' 
DISL,ioos:station:DISL:PPTA:1,2016-01-01T09:00:00Z,30.2791,-87.5561,0.0,4.64,354.3,-9999.0,'1111122,1111122,1111122' 
DISL,ioos:station:DISL:PPTA:1,2016-01-01T09:30:00Z,30.2791,-87.5561,0.0,5.65,12.28,-9999.0,'1111122,1111122,1111122' 
DISL,ioos:station:DISL:PPTA:1,2016-01-01T10:00:00Z,30.2791,-87.5561,0.0,5.65,18.38,-9999.0,'1111122,1111122,1111122' 
DISL,ioos:station:DISL:PPTA:1,2016-01-01T10:30:00Z,30.2791,-87.5561,0.0,5.46,10.28,-9999.0,'1111122,1111122,1111122' 
DISL,ioos:station:DISL:PPTA:1,2016-01-01T11:00:00Z,30.2791,-87.5561,0.0,6.11,354.9,-9999.0,'1111122,1111122,1111122' 
DISL,ioos:station:DISL:PPTA:1,2016-01-01T11:30:00Z,30.2791,-87.5561,0.0,6.55,11.35,-9999.0,'1111122,1111122,1111122' 
DISL,ioos:station:DISL:PPTA:1,2016-01-01T12:00:00Z,30.2791,-87.5561,0.0,7.63,342.5,-9999.0,'1111122,1111122,1111122' 
DISL,ioos:station:DISL:PPTA:1,2016-01-01T12:30:00Z,30.2791,-87.5561,0.0,7.72,343.0,-9999.0,'1111122,1111122,1111122' 
DISL,ioos:station:DISL:PPTA:1,2016-01-01T13:00:00Z,30.2791,-87.5561,0.0,6.8,348.2,-9999.0,'1111122,1111122,1111122' 
DISL,ioos:station:DISL:PPTA:1,2016-01-01T13:30:00Z,30.2791,-87.5561,0.0,6.54,331.2,-9999.0,'1111122,1111122,1111122' 
DISL,ioos:station:DISL:PPTA:1,2016-01-01T14:00:00Z,30.2791,-87.5561,0.0,5.91,355.5,-9999.0,'1111122,1111122,1111122' 
DISL,ioos:station:DISL:PPTA:1,2016-01-01T14:30:00Z,30.2791,-87.5561,0.0,5.54,337.8,-9999.0,'1111122,1111122,1111122' 
DISL,ioos:station:DISL:PPTA:1,2016-01-01T15:00:00Z,30.2791,-87.5561,0.0,6.57,2.866,-9999.0,'1111122,1111122,1111122' 
DISL,ioos:station:DISL:PPTA:1,2016-01-01T15:30:00Z,30.2791,-87.5561,0.0,6.26,28.61,-9999.0,'1111122,1111122,1111122' 
DISL,ioos:station:DISL:PPTA:1,2016-01-01T16:00:00Z,30.2791,-87.5561,0.0,5.35,43.57,-9999.0,'1111122,1111122,1111122' 
DISL,ioos:station:DISL:PPTA:1,2016-01-01T16:30:00Z,30.2791,-87.5561,0.0,5.31,33.22,-9999.0,'1111122,1111122,1111122' 
DISL,ioos:station:DISL:PPTA:1,2016-01-01T17:00:00Z,30.2791,-87.5561,0.0,4.98,26.75,-9999.0,'1111122,1111122,1111122' 
DISL,ioos:station:DISL:PPTA:1,2016-01-01T17:30:00Z,30.2791,-87.5561,0.0,4.34,333.1,-9999.0,'1111122,1111122,1111122' 
DISL,ioos:station:DISL:PPTA:1,2016-01-01T18:00:00Z,30.2791,-87.5561,0.0,5.17,343.2,-9999.0,'1111122,1111122,1111122' 
DISL,ioos:station:DISL:PPTA:1,2016-01-01T18:30:00Z,30.2791,-87.5561,0.0,5.96,343.6,-9999.0,'1111122,1111122,1111122' 
DISL,ioos:station:DISL:PPTA:1,2016-01-01T19:00:00Z,30.2791,-87.5561,0.0,6.44,346.1,-9999.0,'1111122,1111122,1111122' 
DISL,ioos:station:DISL:PPTA:1,2016-01-01T19:30:00Z,30.2791,-87.5561,0.0,6.54,330.8,-9999.0,'1111122,1111122,1111122' 
DISL,ioos:station:DISL:PPTA:1,2016-01-01T20:00:00Z,30.2791,-87.5561,0.0,6.15,5.566,-9999.0,'1111122,1111122,1111122' 
DISL,ioos:station:DISL:PPTA:1,2016-01-01T20:30:00Z,30.2791,-87.5561,0.0,6.75,4.829,-9999.0,'1111122,1111122,1111122' 
DISL,ioos:station:DISL:PPTA:1,2016-01-01T21:00:00Z,30.2791,-87.5561,0.0,5.96,14.37,-9999.0,'1111122,1111122,1111122' 
DISL,ioos:station:DISL:PPTA:1,2016-01-01T21:30:00Z,30.2791,-87.5561,0.0,6.31,12.08,-9999.0,'1111122,1111122,1111122' 
DISL,ioos:station:DISL:PPTA:1,2016-01-01T22:00:00Z,30.2791,-87.5561,0.0,5.69,350.8,-9999.0,'1111122,1111122,1111122' 
DISL,ioos:station:DISL:PPTA:1,2016-01-01T22:30:00Z,30.2791,-87.5561,0.0,6.21,354.8,-9999.0,'1111122,1111122,1111122' 
DISL,ioos:station:DISL:PPTA:1,2016-01-01T23:00:00Z,30.2791,-87.5561,0.0,4.59,0.5,-9999.0,'1111122,1111122,1111122' 
DISL,ioos:station:DISL:PPTA:1,2016-01-01T23:30:00Z,30.2791,-87.5561,0.0,5.32,357.8,-9999.0,'1111122,1111122,1111122' 
DISL,ioos:station:DISL:PPTA:1,2016-01-02T00:00:00Z,30.2791,-87.5561,0.0,5.55,348.1,-9999.0,'1111122,1111122,1111122' 
DISL,ioos:station:DISL:PPTA:1,2016-01-02T00:30:00Z,30.2791,-87.5561,0.0,6.87,348.2,-9999.0,'1111122,1111122,1111122' 
DISL,ioos:station:DISL:PPTA:1,2016-01-02T01:00:00Z,30.2791,-87.5561,0.0,6.38,348.7,-9999.0,'1111122,1111122,1111122' 
DISL,ioos:station:DISL:PPTA:1,2016-01-02T01:30:00Z,30.2791,-87.5561,0.0,5.93,1.028,-9999.0,'1111122,1111122,1111122' 
DISL,ioos:station:DISL:PPTA:1,2016-01-02T02:00:00Z,30.2791,-87.5561,0.0,6.07,9.4,-9999.0,'1111122,1111122,1111122' 
DISL,ioos:station:DISL:PPTA:1,2016-01-02T02:30:00Z,30.2791,-87.5561,0.0,6.0,12.22,-9999.0,'1111122,1111122,1111122' 
DISL,ioos:station:DISL:PPTA:1,2016-01-02T03:00:00Z,30.2791,-87.5561,0.0,5.92,9.39,-9999.0,'1111122,1111122,1111122' 
DISL,ioos:station:DISL:PPTA:1,2016-01-02T03:30:00Z,30.2791,-87.5561,0.0,6.56,11.16,-9999.0,'1111122,1111122,1111122' 
DISL,ioos:station:DISL:PPTA:1,2016-01-02T04:00:00Z,30.2791,-87.5561,0.0,5.97,12.94,-9999.0,'1111122,1111122,1111122' 
DISL,ioos:station:DISL:PPTA:1,2016-01-02T04:30:00Z,30.2791,-87.5561,0.0,5.69,16.31,-9999.0,'1111122,1111122,1111122' 
DISL,ioos:station:DISL:PPTA:1,2016-01-02T05:00:00Z,30.2791,-87.5561,0.0,5.65,21.43,-9999.0,'1111122,1111122,1111122' 
DISL,ioos:station:DISL:PPTA:1,2016-01-02T05:30:00Z,30.2791,-87.5561,0.0,5.55,356.3,-9999.0,'1111122,1111122,1111122' 
DISL,ioos:station:DISL:PPTA:1,2016-01-02T06:00:00Z,30.2791,-87.5561,0.0,5.96,356.6,-9999.0,'1111122,1111122,1111122' 
DISL,ioos:station:DISL:PPTA:1,2016-01-02T06:30:00Z,30.2791,-87.5561,0.0,5.66,15.13,-9999.0,'1111122,1111122,1111122' 
DISL,ioos:station:DISL:PPTA:1,2016-01-02T07:00:00Z,30.2791,-87.5561,0.0,4.77,358.8,-9999.0,'1111122,1111122,1111122' 
DISL,ioos:station:DISL:PPTA:1,2016-01-02T07:30:00Z,30.2791,-87.5561,0.0,6.29,11.08,-9999.0,'1111122,1111122,1111122' 
DISL,ioos:station:DISL:PPTA:1,2016-01-02T08:00:00Z,30.2791,-87.5561,0.0,5.76,351.6,-9999.0,'1111122,1111122,1111122' 
DISL,ioos:station:DISL:PPTA:1,2016-01-02T08:30:00Z,30.2791,-87.5561,0.0,6.04,354.9,-9999.0,'1111122,1111122,1111122' 
DISL,ioos:station:DISL:PPTA:1,2016-01-02T09:00:00Z,30.2791,-87.5561,0.0,6.55,359.8,-9999.0,'1111122,1111122,1111122' 
DISL,ioos:station:DISL:PPTA:1,2016-01-02T09:30:00Z,30.2791,-87.5561,0.0,6.44,350.5,-9999.0,'1111122,1111122,1111122' 
DISL,ioos:station:DISL:PPTA:1,2016-01-02T10:00:00Z,30.2791,-87.5561,0.0,6.72,8.06,-9999.0,'1111122,1111122,1111122' 
DISL,ioos:station:DISL:PPTA:1,2016-01-02T10:30:00Z,30.2791,-87.5561,0.0,6.31,357.3,-9999.0,'1111122,1111122,1111122' 
DISL,ioos:station:DISL:PPTA:1,2016-01-02T11:00:00Z,30.2791,-87.5561,0.0,6.28,13.67,-9999.0,'1111122,1111122,1111122' 
DISL,ioos:station:DISL:PPTA:1,2016-01-02T11:30:00Z,30.2791,-87.5561,0.0,5.74,11.74,-9999.0,'1111122,1111122,1111122' 
DISL,ioos:station:DISL:PPTA:1,2016-01-02T12:00:00Z,30.2791,-87.5561,0.0,6.03,15.25,-9999.0,'1111122,1111122,1111122' 
DISL,ioos:station:DISL:PPTA:1,2016-01-02T12:30:00Z,30.2791,-87.5561,0.0,6.34,23.73,-9999.0,'1111122,1111122,1111122' 
DISL,ioos:station:DISL:PPTA:1,2016-01-02T13:00:00Z,30.2791,-87.5561,0.0,6.15,20.78,-9999.0,'1111122,1111122,1111122' 
DISL,ioos:station:DISL:PPTA:1,2016-01-02T13:30:00Z,30.2791,-87.5561,0.0,5.62,15.49,-9999.0,'1111122,1111122,1111122' 
DISL,ioos:station:DISL:PPTA:1,2016-01-02T14:00:00Z,30.2791,-87.5561,0.0,5.74,11.62,-9999.0,'1111122,1111122,1111122' 
DISL,ioos:station:DISL:PPTA:1,2016-01-02T14:30:00Z,30.2791,-87.5561,0.0,6.12,20.36,-9999.0,'1111122,1111122,1111122' 
DISL,ioos:station:DISL:PPTA:1,2016-01-02T15:00:00Z,30.2791,-87.5561,0.0,5.95,15.44,-9999.0,'1111122,1111122,1111122' 
DISL,ioos:station:DISL:PPTA:1,2016-01-02T15:30:00Z,30.2791,-87.5561,0.0,5.85,11.66,-9999.0,'1111122,1111122,1111122' 
DISL,ioos:station:DISL:PPTA:1,2016-01-02T16:00:00Z,30.2791,-87.5561,0.0,4.7,11.1,-9999.0,'1111122,1111122,1111122' 
DISL,ioos:station:DISL:PPTA:1,2016-01-02T16:30:00Z,30.2791,-87.5561,0.0,4.14,352.1,-9999.0,'1111122,1111122,1111122' 
DISL,ioos:station:DISL:PPTA:1,2016-01-02T17:00:00Z,30.2791,-87.5561,0.0,4.43,10.11,-9999.0,'1111122,1111122,1111122' 
DISL,ioos:station:DISL:PPTA:1,2016-01-02T17:30:00Z,30.2791,-87.5561,0.0,5.65,10.41,-9999.0,'1111122,1111122,1111122' 
DISL,ioos:station:DISL:PPTA:1,2016-01-02T18:00:00Z,30.2791,-87.5561,0.0,5.94,15.39,-9999.0,'1111122,1111122,1111122' 
DISL,ioos:station:DISL:PPTA:1,2016-01-02T18:30:00Z,30.2791,-87.5561,0.0,4.64,344.5,-9999.0,'1111122,1111122,1111122' 
DISL,ioos:station:DISL:PPTA:1,2016-01-02T19:00:00Z,30.2791,-87.5561,0.0,4.13,356.9,-9999.0,'1111122,1111122,1111122' 
DISL,ioos:station:DISL:PPTA:1,2016-01-02T19:30:00Z,30.2791,-87.5561,0.0,5.0,5.216,-9999.0,'1111122,1111122,1111122' 
DISL,ioos:station:DISL:PPTA:1,2016-01-02T20:00:00Z,30.2791,-87.5561,0.0,4.54,6.704,-9999.0,'1111122,1111122,1111122' 
DISL,ioos:station:DISL:PPTA:1,2016-01-02T20:30:00Z,30.2791,-87.5561,0.0,4.29,348.4,-9999.0,'1111122,1111122,1111122' 
DISL,ioos:station:DISL:PPTA:1,2016-01-02T21:00:00Z,30.2791,-87.5561,0.0,4.15,342.3,-9999.0,'1111122,1111122,1111122' 
DISL,ioos:station:DISL:PPTA:1,2016-01-02T21:30:00Z,30.2791,-87.5561,0.0,3.8,346.8,-9999.0,'1111122,1111122,1111122' 
DISL,ioos:station:DISL:PPTA:1,2016-01-02T22:00:00Z,30.2791,-87.5561,0.0,4.1,358.9,-9999.0,'1111122,1111122,1111122' 
DISL,ioos:station:DISL:PPTA:1,2016-01-02T22:30:00Z,30.2791,-87.5561,0.0,3.73,10.43,-9999.0,'1111122,1111122,1111122' 
DISL,ioos:station:DISL:PPTA:1,2016-01-02T23:00:00Z,30.2791,-87.5561,0.0,2.89,357.0,-9999.0,'1111122,1111122,1111122' 
DISL,ioos:station:DISL:PPTA:1,2016-01-02T23:30:00Z,30.2791,-87.5561,0.0,2.03,331.3,-9999.0,'1111122,1111122,1111122' 
DISL,ioos:station:DISL:PPTA:1,2016-01-03T00:00:00Z,30.2791,-87.5561,0.0,2.49,323.8,-9999.0,'1111122,1111122,1111122' 
DISL,ioos:station:DISL:PPTA:1,2016-01-03T00:30:00Z,30.2791,-87.5561,0.0,3.51,318.1,-9999.0,'1111122,1111122,1111122' 
DISL,ioos:station:DISL:PPTA:1,2016-01-03T01:00:00Z,30.2791,-87.5561,0.0,2.97,319.9,-9999.0,'1111122,1111122,1111122' 
DISL,ioos:station:DISL:PPTA:1,2016-01-03T01:30:00Z,30.2791,-87.5561,0.0,3.88,342.5,-9999.0,'1111122,1111122,1111122' 
DISL,ioos:station:DISL:PPTA:1,2016-01-03T02:00:00Z,30.2791,-87.5561,0.0,4.2,0.543,-9999.0,'1111122,1111122,1111122' 
DISL,ioos:station:DISL:PPTA:1,2016-01-03T02:30:00Z,30.2791,-87.5561,0.0,3.79,21.99,-9999.0,'1111122,1111122,1111122' 
DISL,ioos:station:DISL:PPTA:1,2016-01-03T03:00:00Z,30.2791,-87.5561,0.0,3.09,358.5,-9999.0,'1111122,1111122,1111122' 
DISL,ioos:station:DISL:PPTA:1,2016-01-03T03:30:00Z,30.2791,-87.5561,0.0,3.11,341.8,-9999.0,'1111122,1111122,1111122' 
DISL,ioos:station:DISL:PPTA:1,2016-01-03T04:00:00Z,30.2791,-87.5561,0.0,3.1,347.5,-9999.0,'1111122,1111122,1111122' 
DISL,ioos:station:DISL:PPTA:1,2016-01-03T04:30:00Z,30.2791,-87.5561,0.0,3.35,6.87,-9999.0,'1111122,1111122,1111122' 
DISL,ioos:station:DISL:PPTA:1,2016-01-03T05:00:00Z,30.2791,-87.5561,0.0,3.74,12.71,-9999.0,'1111122,1111122,1111122' 
DISL,ioos:station:DISL:PPTA:1,2016-01-03T05:30:00Z,30.2791,-87.5561,0.0,3.28,0.095,-9999.0,'1111122,1111122,1111122' 
DISL,ioos:station:DISL:PPTA:1,2016-01-03T06:00:00Z,30.2791,-87.5561,0.0,3.89,10.86,-9999.0,'1111122,1111122,1111122' 
DISL,ioos:station:DISL:PPTA:1,2016-01-03T06:30:00Z,30.2791,-87.5561,0.0,4.29,21.83,-9999.0,'1111122,1111122,1111122' 
DISL,ioos:station:DISL:PPTA:1,2016-01-03T07:00:00Z,30.2791,-87.5561,0.0,4.55,8.25,-9999.0,'1111122,1111122,1111122' 
DISL,ioos:station:DISL:PPTA:1,2016-01-03T07:30:00Z,30.2791,-87.5561,0.0,5.4,13.21,-9999.0,'1111122,1111122,1111122' 
DISL,ioos:station:DISL:PPTA:1,2016-01-03T08:00:00Z,30.2791,-87.5561,0.0,4.57,12.09,-9999.0,'1111122,1111122,1111122' 
DISL,ioos:station:DISL:PPTA:1,2016-01-03T08:30:00Z,30.2791,-87.5561,0.0,4.77,15.5,-9999.0,'1111122,1111122,1111122' 
DISL,ioos:station:DISL:PPTA:1,2016-01-03T09:00:00Z,30.2791,-87.5561,0.0,4.92,14.0,-9999.0,'1111122,1111122,1111122' 
DISL,ioos:station:DISL:PPTA:1,2016-01-03T09:30:00Z,30.2791,-87.5561,0.0,4.74,16.75,-9999.0,'1111122,1111122,1111122' 
DISL,ioos:station:DISL:PPTA:1,2016-01-03T10:00:00Z,30.2791,-87.5561,0.0,4.51,14.37,-9999.0,'1111122,1111122,1111122' 
DISL,ioos:station:DISL:PPTA:1,2016-01-03T10:30:00Z,30.2791,-87.5561,0.0,4.78,10.69,-9999.0,'1111122,1111122,1111122' 
DISL,ioos:station:DISL:PPTA:1,2016-01-03T11:00:00Z,30.2791,-87.5561,0.0,4.82,13.04,-9999.0,'1111122,1111122,1111122' 
DISL,ioos:station:DISL:PPTA:1,2016-01-03T11:30:00Z,30.2791,-87.5561,0.0,5.18,25.87,-9999.0,'1111122,1111122,1111122' 
DISL,ioos:station:DISL:PPTA:1,2016-01-03T12:00:00Z,30.2791,-87.5561,0.0,4.16,10.8,-9999.0,'1111122,1111122,1111122' 
DISL,ioos:station:DISL:PPTA:1,2016-01-03T12:30:00Z,30.2791,-87.5561,0.0,4.09,5.752,-9999.0,'1111122,1111122,1111122' 
DISL,ioos:station:DISL:PPTA:1,2016-01-03T13:00:00Z,30.2791,-87.5561,0.0,4.31,9.11,-9999.0,'1111122,1111122,1111122' 
DISL,ioos:station:DISL:PPTA:1,2016-01-03T13:30:00Z,30.2791,-87.5561,0.0,4.64,7.153,-9999.0,'1111122,1111122,1111122' 
DISL,ioos:station:DISL:PPTA:1,2016-01-03T14:00:00Z,30.2791,-87.5561,0.0,4.54,1.559,-9999.0,'1111122,1111122,1111122' 
DISL,ioos:station:DISL:PPTA:1,2016-01-03T14:30:00Z,30.2791,-87.5561,0.0,4.16,1.366,-9999.0,'1111122,1111122,1111122' 
DISL,ioos:station:DISL:PPTA:1,2016-01-03T15:00:00Z,30.2791,-87.5561,0.0,3.44,4.192,-9999.0,'1111122,1111122,1111122' 
DISL,ioos:station:DISL:PPTA:1,2016-01-03T15:30:00Z,30.2791,-87.5561,0.0,4.18,14.23,-9999.0,'1111122,1111122,1111122' 
DISL,ioos:station:DISL:PPTA:1,2016-01-03T16:00:00Z,30.2791,-87.5561,0.0,3.13,21.74,-9999.0,'1111122,1111122,1111122' 
DISL,ioos:station:DISL:PPTA:1,2016-01-03T16:30:00Z,30.2791,-87.5561,0.0,3.42,10.81,-9999.0,'1111122,1111122,1111122' 
DISL,ioos:station:DISL:PPTA:1,2016-01-03T17:00:00Z,30.2791,-87.5561,0.0,3.65,44.04,-9999.0,'1111122,1111122,1111122' 
DISL,ioos:station:DISL:PPTA:1,2016-01-03T17:30:00Z,30.2791,-87.5561,0.0,2.0,24.28,-9999.0,'1111122,1111122,1111122' 
DISL,ioos:station:DISL:PPTA:1,2016-01-03T18:00:00Z,30.2791,-87.5561,0.0,2.2,21.2,-9999.0,'1111122,1111122,1111122' 
DISL,ioos:station:DISL:PPTA:1,2016-01-03T18:30:00Z,30.2791,-87.5561,0.0,2.44,315.7,-9999.0,'1111122,1111122,1111122' 
DISL,ioos:station:DISL:PPTA:1,2016-01-03T19:00:00Z,30.2791,-87.5561,0.0,3.6,330.3,-9999.0,'1111122,1111122,1111122' 
DISL,ioos:station:DISL:PPTA:1,2016-01-03T19:30:00Z,30.2791,-87.5561,0.0,3.78,321.3,-9999.0,'1111122,1111122,1111122' 
DISL,ioos:station:DISL:PPTA:1,2016-01-03T20:00:00Z,30.2791,-87.5561,0.0,3.6,357.6,-9999.0,'1111122,1111122,1111122' 
DISL,ioos:station:DISL:PPTA:1,2016-01-03T20:30:00Z,30.2791,-87.5561,0.0,4.03,317.4,-9999.0,'1111122,1111122,1111122' 
DISL,ioos:station:DISL:PPTA:1,2016-01-03T21:00:00Z,30.2791,-87.5561,0.0,2.19,332.9,-9999.0,'1111122,1111122,1111122' 
DISL,ioos:station:DISL:PPTA:1,2016-01-03T21:30:00Z,30.2791,-87.5561,0.0,3.46,329.6,-9999.0,'1111122,1111122,1111122' 
DISL,ioos:station:DISL:PPTA:1,2016-01-03T22:00:00Z,30.2791,-87.5561,0.0,2.89,337.5,-9999.0,'1111122,1111122,1111122' 
DISL,ioos:station:DISL:PPTA:1,2016-01-03T22:30:00Z,30.2791,-87.5561,0.0,2.71,355.7,-9999.0,'1111122,1111122,1111122' 
DISL,ioos:station:DISL:PPTA:1,2016-01-03T23:00:00Z,30.2791,-87.5561,0.0,2.84,352.4,-9999.0,'1111122,1111122,1111122' 
DISL,ioos:station:DISL:PPTA:1,2016-01-03T23:30:00Z,30.2791,-87.5561,0.0,2.53,336.8,-9999.0,'1111122,1111122,1111122' 
DISL,ioos:station:DISL:PPTA:1,2016-01-04T00:00:00Z,30.2791,-87.5561,0.0,2.13,311.5,-9999.0,'1111122,1111122,1111122' 
DISL,ioos:station:DISL:PPTA:1,2016-01-04T00:30:00Z,30.2791,-87.5561,0.0,2.23,307.8,-9999.0,'1111122,1111122,1111122' 
DISL,ioos:station:DISL:PPTA:1,2016-01-04T01:00:00Z,30.2791,-87.5561,0.0,2.91,323.5,-9999.0,'1111122,1111122,1111122' 
DISL,ioos:station:DISL:PPTA:1,2016-01-04T01:30:00Z,30.2791,-87.5561,0.0,2.55,325.4,-9999.0,'1111122,1111122,1111122' 
DISL,ioos:station:DISL:PPTA:1,2016-01-04T02:00:00Z,30.2791,-87.5561,0.0,2.84,322.2,-9999.0,'1111122,1111122,1111122' 
DISL,ioos:station:DISL:PPTA:1,2016-01-04T02:30:00Z,30.2791,-87.5561,0.0,3.66,324.0,-9999.0,'1111122,1111122,1111122' 
DISL,ioos:station:DISL:PPTA:1,2016-01-04T03:00:00Z,30.2791,-87.5561,0.0,3.65,329.7,-9999.0,'1111122,1111122,1111122' 
DISL,ioos:station:DISL:PPTA:1,2016-01-04T03:30:00Z,30.2791,-87.5561,0.0,3.24,311.3,-9999.0,'1111122,1111122,1111122' 
DISL,ioos:station:DISL:PPTA:1,2016-01-04T04:00:00Z,30.2791,-87.5561,0.0,3.37,315.8,-9999.0,'1111122,1111122,1111122' 
DISL,ioos:station:DISL:PPTA:1,2016-01-04T04:30:00Z,30.2791,-87.5561,0.0,4.15,314.1,-9999.0,'1111122,1111122,1111122' 
DISL,ioos:station:DISL:PPTA:1,2016-01-04T05:00:00Z,30.2791,-87.5561,0.0,3.45,307.3,-9999.0,'1111122,1111122,1111122' 
DISL,ioos:station:DISL:PPTA:1,2016-01-04T05:30:00Z,30.2791,-87.5561,0.0,3.66,307.7,-9999.0,'1111122,1111122,1111122' 
DISL,ioos:station:DISL:PPTA:1,2016-01-04T06:00:00Z,30.2791,-87.5561,0.0,3.32,294.6,-9999.0,'1111122,1111122,1111122' 
DISL,ioos:station:DISL:PPTA:1,2016-01-04T06:30:00Z,30.2791,-87.5561,0.0,3.06,292.6,-9999.0,'1111122,1111122,1111122' 
DISL,ioos:station:DISL:PPTA:1,2016-01-04T07:00:00Z,30.2791,-87.5561,0.0,2.75,302.4,-9999.0,'1111122,1111122,1111122' 
DISL,ioos:station:DISL:PPTA:1,2016-01-04T07:30:00Z,30.2791,-87.5561,0.0,3.34,306.1,-9999.0,'1111122,1111122,1111122' 
DISL,ioos:station:DISL:PPTA:1,2016-01-04T08:00:00Z,30.2791,-87.5561,0.0,3.47,317.4,-9999.0,'1111122,1111122,1111122' 
DISL,ioos:station:DISL:PPTA:1,2016-01-04T08:30:00Z,30.2791,-87.5561,0.0,4.33,314.7,-9999.0,'1111122,1111122,1111122' 
DISL,ioos:station:DISL:PPTA:1,2016-01-04T09:00:00Z,30.2791,-87.5561,0.0,4.52,310.0,-9999.0,'1111122,1111122,1111122' 
DISL,ioos:station:DISL:PPTA:1,2016-01-04T09:30:00Z,30.2791,-87.5561,0.0,4.65,314.6,-9999.0,'1111122,1111122,1111122' 
DISL,ioos:station:DISL:PPTA:1,2016-01-04T10:00:00Z,30.2791,-87.5561,0.0,4.51,322.1,-9999.0,'1111122,1111122,1111122' 
DISL,ioos:station:DISL:PPTA:1,2016-01-04T10:30:00Z,30.2791,-87.5561,0.0,4.43,318.8,-9999.0,'1111122,1111122,1111122' 
DISL,ioos:station:DISL:PPTA:1,2016-01-04T11:00:00Z,30.2791,-87.5561,0.0,3.76,321.0,-9999.0,'1111122,1111122,1111122' 
DISL,ioos:station:DISL:PPTA:1,2016-01-04T11:30:00Z,30.2791,-87.5561,0.0,4.06,315.9,-9999.0,'1111122,1111122,1111122' 
DISL,ioos:station:DISL:PPTA:1,2016-01-04T12:00:00Z,30.2791,-87.5561,0.0,2.74,328.2,-9999.0,'1111122,1111122,1111122' 
DISL,ioos:station:DISL:PPTA:1,2016-01-04T12:30:00Z,30.2791,-87.5561,0.0,3.49,319.0,-9999.0,'1111122,1111122,1111122' 
DISL,ioos:station:DISL:PPTA:1,2016-01-04T13:00:00Z,30.2791,-87.5561,0.0,3.32,321.9,-9999.0,'1111122,1111122,1111122' 
DISL,ioos:station:DISL:PPTA:1,2016-01-04T13:30:00Z,30.2791,-87.5561,0.0,3.63,326.9,-9999.0,'1111122,1111122,1111122' 
DISL,ioos:station:DISL:PPTA:1,2016-01-04T14:00:00Z,30.2791,-87.5561,0.0,4.96,347.1,-9999.0,'1111122,1111122,1111122' 
DISL,ioos:station:DISL:PPTA:1,2016-01-04T14:30:00Z,30.2791,-87.5561,0.0,4.93,340.8,-9999.0,'1111122,1111122,1111122' 
DISL,ioos:station:DISL:PPTA:1,2016-01-04T15:00:00Z,30.2791,-87.5561,0.0,4.47,8.88,-9999.0,'1111122,1111122,1111122' 
DISL,ioos:station:DISL:PPTA:1,2016-01-04T15:30:00Z,30.2791,-87.5561,0.0,5.07,0.416,-9999.0,'1111122,1111122,1111122' 
DISL,ioos:station:DISL:PPTA:1,2016-01-04T16:00:00Z,30.2791,-87.5561,0.0,4.55,356.3,-9999.0,'1111122,1111122,1111122' 
DISL,ioos:station:DISL:PPTA:1,2016-01-04T16:30:00Z,30.2791,-87.5561,0.0,4.51,0.027,-9999.0,'1111122,1111122,1111122' 
DISL,ioos:station:DISL:PPTA:1,2016-01-04T17:00:00Z,30.2791,-87.5561,0.0,4.13,5.819,-9999.0,'1111122,1111122,1111122' 
DISL,ioos:station:DISL:PPTA:1,2016-01-04T17:30:00Z,30.2791,-87.5561,0.0,4.7,356.2,-9999.0,'1111122,1111122,1111122' 
DISL,ioos:station:DISL:PPTA:1,2016-01-04T18:00:00Z,30.2791,-87.5561,0.0,4.76,352.2,-9999.0,'1111122,1111122,1111122' 
DISL,ioos:station:DISL:PPTA:1,2016-01-04T18:30:00Z,30.2791,-87.5561,0.0,4.64,351.8,-9999.0,'1111122,1111122,1111122' 
DISL,ioos:station:DISL:PPTA:1,2016-01-04T19:00:00Z,30.2791,-87.5561,0.0,5.76,317.1,-9999.0,'1111122,1111122,1111122' 
DISL,ioos:station:DISL:PPTA:1,2016-01-04T19:30:00Z,30.2791,-87.5561,0.0,4.28,335.5,-9999.0,'1111122,1111122,1111122' 
DISL,ioos:station:DISL:PPTA:1,2016-01-04T20:00:00Z,30.2791,-87.5561,0.0,5.18,339.2,-9999.0,'1111122,1111122,1111122' 
DISL,ioos:station:DISL:PPTA:1,2016-01-04T20:30:00Z,30.2791,-87.5561,0.0,5.52,4.193,-9999.0,'1111122,1111122,1111122' 
DISL,ioos:station:DISL:PPTA:1,2016-01-04T21:00:00Z,30.2791,-87.5561,0.0,5.13,352.1,-9999.0,'1111122,1111122,1111122' 
DISL,ioos:station:DISL:PPTA:1,2016-01-04T21:30:00Z,30.2791,-87.5561,0.0,6.09,346.5,-9999.0,'1111122,1111122,1111122' 
DISL,ioos:station:DISL:PPTA:1,2016-01-04T22:00:00Z,30.2791,-87.5561,0.0,6.46,13.66,-9999.0,'1111122,1111122,1111122' 
DISL,ioos:station:DISL:PPTA:1,2016-01-04T22:30:00Z,30.2791,-87.5561,0.0,5.97,351.4,-9999.0,'1111122,1111122,1111122' 
DISL,ioos:station:DISL:PPTA:1,2016-01-04T23:00:00Z,30.2791,-87.5561,0.0,5.95,22.09,-9999.0,'1111122,1111122,1111122' 
DISL,ioos:station:DISL:PPTA:1,2016-01-04T23:30:00Z,30.2791,-87.5561,0.0,5.65,11.66,-9999.0,'1111122,1111122,1111122' 
DISL,ioos:station:DISL:PPTA:1,2016-01-05T00:00:00Z,30.2791,-87.5561,0.0,5.03,13.05,-9999.0,'1111122,1111122,1111122' 
DISL,ioos:station:DISL:PPTA:1,2016-01-05T00:30:00Z,30.2791,-87.5561,0.0,6.58,10.65,-9999.0,'1111122,1111122,1111122' 
DISL,ioos:station:DISL:PPTA:1,2016-01-05T01:00:00Z,30.2791,-87.5561,0.0,5.92,10.37,-9999.0,'1111122,1111122,1111122' 
DISL,ioos:station:DISL:PPTA:1,2016-01-05T01:30:00Z,30.2791,-87.5561,0.0,5.53,8.89,-9999.0,'1111122,1111122,1111122' 
DISL,ioos:station:DISL:PPTA:1,2016-01-05T02:00:00Z,30.2791,-87.5561,0.0,5.07,9.52,-9999.0,'1111122,1111122,1111122' 
DISL,ioos:station:DISL:PPTA:1,2016-01-05T02:30:00Z,30.2791,-87.5561,0.0,5.31,7.861,-9999.0,'1111122,1111122,1111122' 
DISL,ioos:station:DISL:PPTA:1,2016-01-05T03:00:00Z,30.2791,-87.5561,0.0,5.06,11.63,-9999.0,'1111122,1111122,1111122' 
DISL,ioos:station:DISL:PPTA:1,2016-01-05T03:30:00Z,30.2791,-87.5561,0.0,6.16,12.67,-9999.0,'1111122,1111122,1111122' 
DISL,ioos:station:DISL:PPTA:1,2016-01-05T04:00:00Z,30.2791,-87.5561,0.0,7.32,15.32,-9999.0,'1111122,1111122,1111122' 
DISL,ioos:station:DISL:PPTA:1,2016-01-05T04:30:00Z,30.2791,-87.5561,0.0,7.4,23.17,-9999.0,'1111122,1111122,1111122' 